�������l�o���
Date,Time,MP-1(��Sv/h),MP-2(��Sv/h),MP-3(��Sv/h),MP-4(��Sv/h),MP-5(��Sv/h),MP-6(��Sv/h),MP-7(��Sv/h),MP-8(��Sv/h),����,����(m/s),���J
2018/04/08,00:00,0.836,1.393,0.876,1.628,1.112,0.476,0.843,0.807,�k,2.9,��
2018/04/08,00:10,0.836,1.394,0.872,1.628,1.112,0.476,0.843,0.809,�k�k��,2.2,��
2018/04/08,00:20,0.836,1.392,0.874,1.626,1.113,0.477,0.844,0.809,�k,2.5,��
2018/04/08,00:30,0.838,1.391,0.873,1.626,1.114,0.478,0.842,0.809,�k�k��,1.7,��
2018/04/08,00:40,0.837,1.397,0.874,1.626,1.115,0.476,0.844,0.808,�k,1.2,��
2018/04/08,00:50,0.837,1.397,0.875,1.626,1.113,0.477,0.843,0.808,�k�k��,0.9,��
2018/04/08,01:00,0.835,1.395,0.873,1.626,1.110,0.476,0.842,0.811,�k�k��,0.8,��
2018/04/08,01:10,0.838,1.393,0.872,1.625,1.113,0.476,0.843,0.808,�k,1.1,��
2018/04/08,01:20,0.839,1.395,0.875,1.627,1.114,0.475,0.843,0.807,��,1.9,��
2018/04/08,01:30,0.837,1.394,0.873,1.627,1.112,0.477,0.843,0.809,���k��,3.3,��
2018/04/08,01:40,0.838,1.395,0.872,1.627,1.114,0.477,0.843,0.810,���k��,6.1,��
2018/04/08,01:50,0.838,1.393,0.872,1.626,1.112,0.477,0.843,0.808,���k��,6.6,��
2018/04/08,02:00,0.839,1.394,0.874,1.628,1.115,0.476,0.843,0.809,���k��,6.3,��
2018/04/08,02:10,0.837,1.391,0.873,1.624,1.115,0.476,0.844,0.809,�k��,6.1,��
2018/04/08,02:20,0.837,1.393,0.873,1.627,1.116,0.476,0.844,0.808,���k��,5.8,��
2018/04/08,02:30,0.838,1.393,0.874,1.628,1.115,0.477,0.844,0.808,���k��,5.1,��
2018/04/08,02:40,0.837,1.395,0.875,1.628,1.114,0.477,0.844,0.809,���k��,4.5,��
2018/04/08,02:50,0.837,1.394,0.876,1.629,1.114,0.477,0.844,0.810,��,4.1,��
2018/04/08,03:00,0.836,1.395,0.873,1.629,1.112,0.477,0.843,0.811,��,4.8,��
2018/04/08,03:10,0.838,1.394,0.874,1.628,1.114,0.476,0.843,0.809,���k��,3.5,��
2018/04/08,03:20,0.837,1.395,0.875,1.627,1.112,0.477,0.844,0.809,��,5.1,��
2018/04/08,03:30,0.837,1.396,0.874,1.630,1.114,0.475,0.842,0.808,��,5.0,��
2018/04/08,03:40,0.837,1.395,0.875,1.627,1.113,0.477,0.845,0.809,���k��,4.8,��
2018/04/08,03:50,0.838,1.395,0.872,1.629,1.113,0.476,0.844,0.810,�k��,4.6,��
2018/04/08,04:00,0.835,1.394,0.875,1.628,1.112,0.476,0.843,0.809,���k��,3.9,��
2018/04/08,04:10,0.839,1.397,0.876,1.630,1.116,0.477,0.845,0.809,���k��,4.5,��
2018/04/08,04:20,0.836,1.395,0.875,1.628,1.115,0.477,0.844,0.810,���k��,4.8,��
2018/04/08,04:30,0.837,1.393,0.874,1.629,1.112,0.475,0.843,0.809,�k��,3.8,��
2018/04/08,04:40,0.836,1.396,0.874,1.630,1.114,0.476,0.843,0.810,�k��,3.5,��
2018/04/08,04:50,0.836,1.394,0.875,1.628,1.115,0.477,0.844,0.811,�k��,2.8,��
2018/04/08,05:00,0.837,1.394,0.873,1.629,1.114,0.477,0.844,0.809,���k��,3.2,��
2018/04/08,05:10,0.837,1.395,0.875,1.625,1.111,0.476,0.843,0.809,��,4.0,��
2018/04/08,05:20,0.836,1.396,0.874,1.628,1.114,0.475,0.843,0.808,��,3.8,��
2018/04/08,05:30,0.834,1.396,0.876,1.630,1.115,0.476,0.842,0.811,��,2.2,��
2018/04/08,05:40,0.837,1.393,0.875,1.628,1.114,0.478,0.843,0.809,�쐼,3.0,��
2018/04/08,05:50,0.837,1.395,0.875,1.631,1.114,0.476,0.845,0.810,�쐼,3.6,��
2018/04/08,06:00,0.837,1.397,0.875,1.629,1.115,0.477,0.844,0.810,�쐼,3.7,��
2018/04/08,06:10,0.838,1.396,0.874,1.630,1.113,0.476,0.844,0.808,�쐼,3.4,��
2018/04/08,06:20,0.837,1.397,0.875,1.629,1.115,0.476,0.844,0.809,��쐼,3.0,��
2018/04/08,06:30,0.837,1.397,0.875,1.634,1.115,0.477,0.844,0.811,�쐼,1.9,��
2018/04/08,06:40,0.839,1.400,0.878,1.630,1.114,0.476,0.846,0.810,��,2.9,��
2018/04/08,06:50,0.837,1.400,0.875,1.632,1.116,0.477,0.843,0.809,���쐼,2.2,��
2018/04/08,07:00,0.838,1.400,0.877,1.631,1.117,0.476,0.845,0.809,�쐼,1.7,��
2018/04/08,07:10,0.838,1.400,0.875,1.630,1.116,0.477,0.845,0.809,�쐼,2.0,��
2018/04/08,07:20,0.839,1.400,0.876,1.631,1.116,0.477,0.845,0.810,�쐼,1.9,��
2018/04/08,07:30,0.839,1.402,0.876,1.633,1.117,0.479,0.848,0.810,���쐼,1.1,��
2018/04/08,07:40,0.838,1.403,0.877,1.631,1.117,0.478,0.846,0.810,���k��,2.0,��
2018/04/08,07:50,0.839,1.404,0.876,1.633,1.117,0.476,0.846,0.810,���k��,4.5,��
2018/04/08,08:00,0.841,1.404,0.877,1.632,1.119,0.475,0.846,0.813,��,7.0,��
2018/04/08,08:10,0.841,1.403,0.878,1.634,1.120,0.477,0.845,0.811,��,6.3,��
2018/04/08,08:20,0.843,1.403,0.879,1.635,1.120,0.476,0.847,0.812,��,5.6,��
2018/04/08,08:30,0.841,1.405,0.880,1.635,1.121,0.476,0.844,0.813,���쐼,4.2,��
2018/04/08,08:40,0.843,1.407,0.879,1.634,1.119,0.474,0.844,0.810,���쐼,5.5,��
2018/04/08,08:50,0.844,1.403,0.879,1.637,1.121,0.476,0.844,0.811,��,9.6,��
2018/04/08,09:00,0.846,1.405,0.881,1.638,1.125,0.475,0.844,0.812,��,10.5,��
2018/04/08,09:10,0.845,1.404,0.881,1.639,1.122,0.474,0.843,0.811,��,6.9,��
2018/04/08,09:20,0.846,1.405,0.881,1.639,1.124,0.475,0.842,0.809,���k��,5.9,��
2018/04/08,09:30,0.846,1.406,0.881,1.638,1.122,0.476,0.844,0.807,�k��,6.0,�L
2018/04/08,09:40,0.844,1.404,0.881,1.636,1.123,0.476,0.845,0.809,�k�k��,9.6,�L
2018/04/08,09:50,0.844,1.402,0.882,1.639,1.124,0.476,0.842,0.810,�k��,8.7,�L
2018/04/08,10:00,0.844,1.403,0.881,1.641,1.126,0.476,0.844,0.810,�k�k��,7.0,�L
2018/04/08,10:10,0.845,1.408,0.882,1.639,1.126,0.479,0.844,0.810,�k�k��,4.5,��
2018/04/08,10:20,0.845,1.410,0.882,1.642,1.127,0.479,0.844,0.811,�k�k��,4.5,��
2018/04/08,10:30,0.846,1.412,0.883,1.645,1.126,0.480,0.844,0.811,�k�k��,5.7,��
2018/04/08,10:40,0.845,1.411,0.885,1.643,1.126,0.481,0.844,0.812,�k�k��,5.4,��
2018/04/08,10:50,0.848,1.410,0.883,1.642,1.127,0.479,0.845,0.812,�k�k��,4.2,��
2018/04/08,11:00,0.848,1.410,0.885,1.640,1.127,0.480,0.844,0.810,���k��,3.1,��
2018/04/08,11:10,0.848,1.411,0.885,1.643,1.130,0.478,0.845,0.811,���쐼,3.8,��
2018/04/08,11:20,0.847,1.411,0.884,1.645,1.125,0.477,0.845,0.811,���k��,5.7,��
2018/04/08,11:30,0.847,1.410,0.884,1.644,1.128,0.478,0.845,0.809,�k�k��,2.9,��
2018/04/08,11:40,0.847,1.409,0.882,1.641,1.125,0.478,0.847,0.809,�k�k��,2.6,��
2018/04/08,11:50,0.849,1.412,0.885,1.643,1.128,0.478,0.846,0.810,���k��,6.3,��
2018/04/08,12:00,0.850,1.412,0.883,1.644,1.127,0.478,0.847,0.810,��,7.4,��
2018/04/08,12:10,0.848,1.416,0.885,1.642,1.131,0.480,0.847,0.812,�k��,6.0,��
2018/04/08,12:20,0.850,1.415,0.884,1.642,1.129,0.480,0.846,0.813,�k��,8.8,��
2018/04/08,12:30,0.849,1.416,0.885,1.644,1.128,0.478,0.846,0.814,��,6.8,��
2018/04/08,12:40,0.847,1.416,0.886,1.646,1.127,0.479,0.848,0.811,�k��,8.3,��
2018/04/08,12:50,0.847,1.416,0.883,1.647,1.130,0.480,0.846,0.811,���k��,10.0,��
2018/04/08,13:00,0.848,1.417,0.886,1.648,1.131,0.482,0.847,0.811,���k��,9.0,��
2018/04/08,13:10,0.849,1.417,0.884,1.645,1.134,0.479,0.848,0.812,���k��,8.2,��
2018/04/08,13:20,0.849,1.416,0.886,1.650,1.132,0.479,0.847,0.811,��,7.9,��
2018/04/08,13:30,0.848,1.418,0.886,1.650,1.134,0.480,0.847,0.811,���k��,7.9,��
2018/04/08,13:40,0.849,1.420,0.885,1.652,1.133,0.480,0.847,0.813,���k��,12.7,��
2018/04/08,13:50,0.849,1.419,0.886,1.656,1.134,0.479,0.848,0.813,��,9.4,��
2018/04/08,14:00,0.849,1.421,0.885,1.651,1.134,0.478,0.847,0.812,��,10.6,��
2018/04/08,14:10,0.850,1.421,0.886,1.655,1.138,0.480,0.847,0.813,��,11.1,��
2018/04/08,14:20,0.851,1.421,0.887,1.654,1.136,0.479,0.849,0.813,��,9.5,��
2018/04/08,14:30,0.851,1.423,0.887,1.653,1.138,0.481,0.848,0.813,�k��,10.7,��
2018/04/08,14:40,0.851,1.423,0.886,1.653,1.136,0.480,0.848,0.812,�k��,12.0,��
2018/04/08,14:50,0.849,1.422,0.887,1.655,1.136,0.480,0.848,0.811,���k��,9.5,��
2018/04/08,15:00,0.852,1.420,0.888,1.655,1.140,0.480,0.847,0.813,���k��,7.7,��
2018/04/08,15:10,0.850,1.421,0.888,1.656,1.137,0.480,0.848,0.813,���k��,7.7,��
2018/04/08,15:20,0.852,1.424,0.890,1.654,1.139,0.480,0.849,0.813,���k��,8.4,��
2018/04/08,15:30,0.853,1.422,0.888,1.659,1.137,0.481,0.849,0.811,��,6.2,��
2018/04/08,15:40,0.851,1.424,0.889,1.655,1.140,0.481,0.850,0.812,���k��,9.9,��
2018/04/08,15:50,0.852,1.425,0.889,1.652,1.139,0.483,0.849,0.812,���k��,8.4,��
2018/04/08,16:00,0.854,1.424,0.890,1.658,1.137,0.482,0.848,0.811,���k��,8.1,��
2018/04/08,16:10,0.853,1.428,0.890,1.655,1.138,0.483,0.847,0.814,���k��,6.8,��
2018/04/08,16:20,0.852,1.428,0.887,1.655,1.140,0.482,0.849,0.814,���k��,11.4,��
2018/04/08,16:30,0.853,1.426,0.893,1.657,1.137,0.482,0.848,0.811,���k��,10.8,��
2018/04/08,16:40,0.852,1.430,0.888,1.657,1.137,0.483,0.849,0.813,���k��,9.1,��
2018/04/08,16:50,0.851,1.430,0.889,1.655,1.140,0.483,0.850,0.815,���k��,9.7,��
2018/04/08,17:00,0.855,1.426,0.892,1.655,1.139,0.480,0.847,0.815,���k��,12.4,��
2018/04/08,17:10,0.854,1.429,0.890,1.659,1.138,0.480,0.848,0.817,���k��,11.0,��
2018/04/08,17:20,0.855,1.429,0.891,1.659,1.138,0.480,0.847,0.816,���k��,10.5,��
2018/04/08,17:30,0.855,1.428,0.889,1.661,1.135,0.480,0.848,0.815,���k��,8.8,��
2018/04/08,17:40,0.853,1.428,0.891,1.663,1.138,0.481,0.847,0.815,�k��,10.5,��
2018/04/08,17:50,0.855,1.430,0.890,1.662,1.140,0.482,0.846,0.815,���k��,7.3,��
2018/04/08,18:00,0.855,1.425,0.891,1.661,1.141,0.483,0.847,0.815,���k��,8.1,��
2018/04/08,18:10,0.855,1.428,0.890,1.660,1.141,0.479,0.847,0.816,���k��,11.9,��
2018/04/08,18:20,0.854,1.427,0.891,1.660,1.142,0.481,0.847,0.813,���k��,10.5,��
2018/04/08,18:30,0.852,1.427,0.889,1.663,1.143,0.480,0.847,0.815,���k��,9.0,��
2018/04/08,18:40,0.854,1.429,0.892,1.662,1.141,0.482,0.848,0.815,���k��,6.5,��
2018/04/08,18:50,0.854,1.427,0.889,1.662,1.140,0.480,0.848,0.815,���k��,6.4,��
2018/04/08,19:00,0.853,1.429,0.891,1.662,1.140,0.480,0.847,0.815,��,5.6,��
2018/04/08,19:10,0.854,1.430,0.890,1.663,1.141,0.480,0.849,0.813,��,8.2,��
2018/04/08,19:20,0.853,1.428,0.891,1.662,1.140,0.479,0.850,0.815,��,8.8,��
2018/04/08,19:30,0.853,1.427,0.888,1.663,1.142,0.481,0.852,0.816,���k��,7.8,��
2018/04/08,19:40,0.853,1.425,0.891,1.664,1.141,0.480,0.849,0.815,���k��,9.3,��
2018/04/08,19:50,0.855,1.428,0.892,1.662,1.143,0.479,0.850,0.814,��,9.3,��
2018/04/08,20:00,0.851,1.428,0.892,1.665,1.143,0.480,0.849,0.815,��,7.7,��
2018/04/08,20:10,0.851,1.429,0.892,1.663,1.140,0.480,0.849,0.815,���k��,8.9,��
2018/04/08,20:20,0.852,1.427,0.891,1.665,1.143,0.481,0.851,0.815,��,7.5,��
2018/04/08,20:30,0.855,1.426,0.891,1.662,1.141,0.480,0.851,0.815,��,7.5,��
2018/04/08,20:40,0.853,1.429,0.891,1.663,1.140,0.478,0.851,0.814,��,7.9,��
2018/04/08,20:50,0.853,1.428,0.891,1.665,1.139,0.480,0.850,0.814,��,8.2,��
2018/04/08,21:00,0.852,1.429,0.890,1.664,1.142,0.480,0.850,0.815,���k��,8.1,��
2018/04/08,21:10,0.854,1.430,0.893,1.665,1.142,0.479,0.850,0.815,���k��,8.1,��
2018/04/08,21:20,0.853,1.428,0.891,1.665,1.139,0.480,0.850,0.815,��,7.2,��
2018/04/08,21:30,0.853,1.428,0.892,1.664,1.142,0.480,0.850,0.816,��,6.8,��
2018/04/08,21:40,0.852,1.429,0.892,1.666,1.142,0.480,0.850,0.813,���k��,5.8,��
2018/04/08,21:50,0.854,1.426,0.893,1.664,1.144,0.481,0.847,0.813,��,5.7,��
2018/04/08,22:00,0.855,1.429,0.891,1.666,1.143,0.480,0.850,0.814,��,6.7,��
2018/04/08,22:10,0.852,1.432,0.893,1.665,1.140,0.480,0.850,0.816,���k��,7.3,��
2018/04/08,22:20,0.854,1.428,0.893,1.664,1.142,0.480,0.850,0.817,��,7.6,��
2018/04/08,22:30,0.852,1.428,0.893,1.669,1.141,0.481,0.849,0.815,���k��,7.3,��
2018/04/08,22:40,0.852,1.430,0.891,1.663,1.143,0.480,0.849,0.815,���k��,7.8,��
2018/04/08,22:50,0.852,1.429,0.892,1.664,1.142,0.481,0.848,0.815,���k��,7.4,��
2018/04/08,23:00,0.853,1.427,0.891,1.665,1.143,0.479,0.848,0.817,�k��,7.1,��
2018/04/08,23:10,0.852,1.427,0.893,1.664,1.142,0.481,0.849,0.814,�k��,6.2,��
2018/04/08,23:20,0.852,1.429,0.892,1.665,1.142,0.480,0.847,0.816,�k��,5.8,��
2018/04/08,23:30,0.853,1.427,0.893,1.665,1.139,0.481,0.848,0.815,���k��,6.3,��
2018/04/08,23:40,0.855,1.428,0.891,1.665,1.141,0.481,0.849,0.815,���k��,6.9,��
2018/04/08,23:50,0.853,1.427,0.892,1.665,1.144,0.481,0.850,0.816,���k��,6.6,��
